Location: Arbon
(43.0005°N, 0.7472°E)
Time: 10:47:19
(UTC+00:00)

SR - Pass Details

Date: 05 December 2020
Orbit: 575 x 880 km, 66.7° (Epoch: 21 January)

Event Time Altitude Azimuth Distance (km) Brightness Sun altitude
Rises 01:43:02 0° 328° (NNW) 3,222 - -58.5°
Reaches altitude 10° 01:45:21 10° 328° (NNW) 2,338 - -58.1°
Maximum altitude 01:50:46 85° 242° (WSW) 832 - -57.2°
Drops below altitude 10° 01:56:34 10° 153° (SSE) 2,487 - -56.3°
Sets 01:59:05 0° 153° (SSE) 3,441 - -55.9°
